Home   Weather   Eureka   Past weeks
Flag for Canada

Past Weather in Eureka, Nunavut, Canada — Yesterday and Last 2 Weeks

Now
16 °F

Partly cloudy.


Feels Like: -1 °F
Forecast: 15 / 2 °F
Wind: 20 mph from South

Location: Eureka

Current Time: Oct 16, 2019 at 9:51:28 am

Latest Report: Oct 16, 2019 at 8:00 am


Visibility: 15 mi

Pressure: 29.73 "Hg

Humidity: 86%

Dew Point: 12 °F

Location of EurekaLocation

Past Weather in Eureka — Graph

°F

Eureka Temperature Yesterday

Maximum temperature yesterday: 19 °F (at 5:00 am)
Minimum temperature yesterday: 12 °F (at 1:00 pm)
Average temperature yesterday: 15 °F

High & Low Weather Summary for the Past Weeks

 TemperatureHumidityPressure
High30 °F (Oct 1, 8:00 am)100% (Oct 1, 8:00 am)29.92 "Hg (Oct 1, 8:00 am)
Low9 °F (Oct 14, 5:00 am)63% (Oct 6, 7:00 pm)29.15 "Hg (Oct 6, 7:31 am)
Average21 °F89%29.64 "Hg
* Reported Oct 1 8:00 am — Oct 16 8:00 am, Eureka. Weather by CustomWeather, © 2019

Note: Actual official high and low records may vary slightly from our data, if they occured in-between our weather recording intervals... More about our weather records

Advertising

Eureka Weather History for the Previous 24 Hours

Scroll right to see more
 ConditionsComfort  
Time TempWeatherWind HumidityBarometerVisibility
8:00 am
Wed, Oct 16
16 °FPartly cloudy.20 mph86%29.73 "Hg15 mi
7:00 am16 °FLow level haze.25 mph86%29.73 "Hg15 mi
6:00 am16 °FPassing clouds.26 mph79%29.73 "Hg15 mi
5:00 am16 °FPassing clouds.16 mph79%29.74 "Hg15 mi
4:00 am16 °FPartly cloudy.23 mph86%29.77 "Hg15 mi
3:27 am16 °FPartly cloudy.15 mph86%29.75 "Hg15 mi
3:00 am16 °FMostly cloudy.21 mph86%29.75 "Hg15 mi
2:00 am14 °FPassing clouds.24 mph85%29.77 "Hg15 mi
1:31 am14 °FPassing clouds.20 mph85%29.77 "Hg15 mi
1:00 am14 °FPassing clouds.24 mph85%29.76 "Hg15 mi
10:00 pm
Tue, Oct 15
14 °FPartly cloudy.21 mph85%29.75 "Hg15 mi
9:00 pm14 °FPassing clouds.12 mph85%29.75 "Hg15 mi
8:00 pm14 °FLow level haze.16 mph85%29.75 "Hg15 mi
7:00 pm16 °FPartly cloudy.13 mph86%29.74 "Hg15 mi
6:00 pm16 °FOvercast.14 mph93%29.73 "Hg15 mi
5:00 pm16 °FMostly cloudy.14 mph93%29.73 "Hg15 mi
4:00 pm14 °FMostly cloudy.13 mph92%29.73 "Hg15 mi
3:00 pm16 °FBroken clouds.9 mph93%29.72 "Hg15 mi
2:00 pm12 °FBroken clouds.2 mph92%29.71 "Hg15 mi
1:00 pm12 °FPartly sunny.5 mph92%29.71 "Hg15 mi
12:00 pm16 °FBroken clouds.6 mph93%29.71 "Hg15 mi
11:00 am18 °FLight snow. More clouds than sun.5 mph93%29.70 "Hg4 mi
10:00 am18 °FLight snow. Low clouds.6 mph93%29.70 "Hg2 mi
Weather by CustomWeather, © 2019

See weather overview